Location: ActonStarParty
(42.4766°N, 71.4538°W)
Time: 09:50:51
(UTC-04:00)

ISS - Visible Passes

Search period start: 30 September 2014 00:00
Search period end: 10 October 2014 00:00
Orbit: 413 x 416 km, 51.6° (Epoch: 30 September)

Date Brightness Start Highest point End Pass type
(mag) Time Alt. Az. Time Alt. Az. Time Alt. Az.
30 Sep -3.2 04:51:46 74° E 04:51:46 74° E 04:54:53 10° ESE visible
01 Oct -0.1 04:05:27 12° ESE 04:05:27 12° ESE 04:05:41 10° ESE visible
01 Oct -1.9 05:38:22 21° WSW 05:38:57 22° SW 05:41:35 10° S visible
02 Oct -1.0 04:52:12 16° SSE 04:52:12 16° SSE 04:53:05 10° SSE visible
05 Oct -0.3 20:38:00 10° SW 20:38:15 12° SW 20:38:15 12° SW visible
06 Oct -2.6 19:49:02 10° SSW 19:51:43 38° SSE 19:51:43 38° SSE visible
07 Oct -1.9 19:00:22 10° S 19:03:03 23° SE 19:05:01 14° E visible
07 Oct -1.0 20:36:20 10° WSW 20:37:54 24° W 20:37:54 24° W visible
08 Oct -3.2 19:46:56 10° WSW 19:50:15 77° NNW 19:51:00 50° NE visible
09 Oct -3.2 18:57:43 10° SW 19:01:00 62° SE 19:03:58 12° ENE visible
09 Oct -0.8 20:35:01 10° W 20:36:49 22° NW 20:36:49 22° NW visible
